Winfield, KS

4:39 AM CST on December 16, 2019 (GMT -0600)
Strother

Weather History for KWLD - October, 2019

Change the Weather History Date:

Saturday, October 5, 2019

  Actual Average Record
Temperature  
Mean Temperature 67 °F -  
Max Temperature 77 °F 72 °F 89 °F (2007)
Min Temperature 57 °F 50 °F 39 °F (1999)
Cooling Degree Days 2    
Growing Degree Days 17 (Base 50)    
Moisture  
Dew Point 63 °F    
Average Humidity 84    
Maximum Humidity 100    
Minimum Humidity 40    
Precipitation  
Precipitation 0.65 in - - ()
Sea Level Pressure  
Sea Level Pressure 29.98 in    
Wind  
Wind Speed 10 mph ()    
Max Wind Speed 21 mph    
Max Gust Speed 28 mph    
Visibility 7.2 miles    
Events Rain , Thunderstorm    
Averages and records for this station are not official NWS values.
T = Trace of Precipitation, MM = Missing Value Source: Averaged Metar Reports

Daily Weather History Graph

Daily Weather History Graph

Search for Another Location

Airport or City:

Astronomy

Oct. 05, 2019 Rise Set
Actual Time 7:26 AM CDT 7:05 PM CDT
Civil Twilight 7:00 AM CDT 7:31 PM CDT
Nautical Twilight 6:30 AM CDT 8:01 PM CDT
Astronomical Twilight 6:00 AM CDT 8:32 PM CDT
Moon 2:46 PM CDT (10/5) No Moon Set
Length of Visible Light 12h 30m
Length of Day
11h 38m
Waxing Crescent, 50% of the Moon is Illuminated
Oct 5
Waxing Crescent
Oct 13
Full
Oct 21
Last Quarter
Oct 27
New
Nov 4
First Quarter

Hourly Weather History & Observations

Time (CDT) Temp. Dew Point Humidity Pressure Visibility Wind Dir Wind Speed Gust Speed Precip Events Conditions
12:54 AM 64.9 °F 63.0 °F 93% 30.01 in 10.0 mi SSE 8.1 mph - N/A   Clear
1:54 AM 64.9 °F 64.0 °F 97% 30.00 in 10.0 mi SE 8.1 mph - N/A   Clear
2:54 AM 66.0 °F 64.9 °F 96% 29.98 in 10.0 mi SSE 11.5 mph - N/A   Clear
3:44 AM 66.9 °F 64.9 °F 93% 29.99 in 10.0 mi SSE 11.5 mph - N/A   Partly Cloudy
3:54 AM 66.9 °F 64.9 °F 93% 29.99 in 10.0 mi South 10.4 mph - N/A   Mostly Cloudy
4:54 AM 66.9 °F 64.9 °F 93% 29.97 in 9.0 mi South 13.8 mph - N/A   Overcast
5:54 AM 66.9 °F 64.9 °F 93% 29.95 in 9.0 mi South 13.8 mph - N/A   Overcast
6:54 AM 66.9 °F 66.0 °F 97% 29.98 in 6.0 mi SSW 10.4 mph - 0.01 in Rain Light Rain
7:15 AM 68.0 °F 66.9 °F 96% 29.99 in 4.0 mi South 12.7 mph - 0.04 in Rain Rain
7:22 AM 68.0 °F 66.9 °F 96% 30.00 in 2.5 mi South 12.7 mph - 0.12 in Rain , Thunderstorm Heavy Rain
7:31 AM 68.0 °F 66.9 °F 96% 29.99 in 1.5 mi SSE 9.2 mph - 0.27 in Rain , Thunderstorm Heavy Thunderstorms and Rain
7:35 AM 68.0 °F 66.9 °F 96% 29.99 in 2.5 mi South 10.4 mph - 0.27 in Rain , Thunderstorm Light Thunderstorms and Rain
7:42 AM 68.0 °F 66.9 °F 96% 29.98 in 4.0 mi South 18.4 mph 26.5 mph 0.33 in Rain , Thunderstorm Heavy Thunderstorms and Rain
7:47 AM 68.0 °F 66.9 °F 96% 29.99 in 2.0 mi South 13.8 mph 26.5 mph 0.43 in Rain , Thunderstorm Heavy Rain
7:54 AM 68.0 °F 66.9 °F 96% 29.96 in 2.0 mi South 15.0 mph - 0.46 in Rain , Thunderstorm Light Thunderstorms and Rain
8:03 AM 68.0 °F 66.9 °F 96% 29.98 in 3.0 mi SSE 20.7 mph 27.6 mph 0.08 in Rain Heavy Rain
8:28 AM 68.0 °F 68.0 °F 100% 29.98 in 2.0 mi Calm Calm - 0.18 in Rain , Thunderstorm Light Thunderstorms and Rain
8:32 AM 68.0 °F 68.0 °F 100% 29.98 in 4.0 mi SSE 4.6 mph - 0.18 in Rain , Thunderstorm Light Thunderstorms and Rain
8:37 AM 68.0 °F - N/A% 29.97 in 9.0 mi SE 5.8 mph - 0.18 in Rain , Thunderstorm Light Thunderstorms and Rain
8:49 AM 68.0 °F - N/A% 29.97 in 8.0 mi SSE 9.2 mph - 0.18 in Thunderstorm Overcast
8:54 AM 68.0 °F - N/A% 29.95 in 7.0 mi SSE 11.5 mph - 0.18 in Thunderstorm Overcast
9:01 AM 68.0 °F - N/A% 29.97 in 8.0 mi South 12.7 mph - N/A   Overcast
9:11 AM 68.0 °F - N/A% 29.97 in 8.0 mi South 12.7 mph - N/A   Overcast
9:54 AM 69.1 °F - N/A% 29.96 in 6.0 mi South 16.1 mph 20.7 mph N/A   Haze
10:54 AM 69.1 °F - N/A% 29.98 in 6.0 mi SW 8.1 mph - N/A   Haze
11:23 AM 70.0 °F 70.0 °F 100% 29.98 in 5.0 mi SSW 11.5 mph - N/A   Overcast
11:46 AM 72.0 °F 72.0 °F 100% 29.98 in 5.0 mi SSW 10.4 mph - N/A   Overcast
11:54 AM 73.0 °F 73.0 °F 100% 29.96 in 6.0 mi SSW 10.4 mph - N/A   Mostly Cloudy
12:13 PM 73.9 °F 73.0 °F 97% 29.96 in 6.0 mi SSW 11.5 mph - N/A   Overcast
12:25 PM 73.0 °F 70.0 °F 90% 29.97 in 6.0 mi WSW 11.5 mph - N/A   Overcast
12:34 PM 73.0 °F 71.1 °F 93% 29.97 in 6.0 mi West 11.5 mph - N/A   Overcast
12:44 PM 75.0 °F 70.0 °F 84% 29.96 in 7.0 mi West 11.5 mph - N/A   Overcast
12:54 PM 73.9 °F 68.0 °F 82% 29.94 in 9.0 mi WNW 12.7 mph 24.2 mph N/A   Mostly Cloudy
1:03 PM 75.9 °F 68.0 °F 76% 29.97 in 10.0 mi WNW 12.7 mph - N/A   Scattered Clouds
1:54 PM 77.0 °F 63.0 °F 62% 29.94 in 10.0 mi NW 18.4 mph - N/A   Clear
2:54 PM 75.0 °F 53.1 °F 46% 29.94 in 10.0 mi North 17.3 mph - N/A   Clear
3:54 PM 75.9 °F 50.0 °F 40% 29.94 in 10.0 mi NNW 12.7 mph - N/A   Clear
4:54 PM 73.9 °F 51.1 °F 45% 29.95 in 10.0 mi NNW 12.7 mph - N/A   Clear
5:54 PM 72.0 °F 50.0 °F 46% 29.94 in 10.0 mi North 12.7 mph - N/A   Clear
6:54 PM 66.9 °F 50.0 °F 54% 29.96 in 10.0 mi North 9.2 mph - N/A   Clear
7:54 PM 63.0 °F 50.0 °F 63% 29.99 in 10.0 mi North 8.1 mph - N/A   Partly Cloudy
8:54 PM 62.1 °F 50.0 °F 65% 30.00 in 10.0 mi NNE 4.6 mph - N/A   Scattered Clouds
9:54 PM 60.1 °F 51.1 °F 72% 30.02 in 10.0 mi NNE 6.9 mph - N/A   Scattered Clouds
10:54 PM 57.0 °F 51.1 °F 81% 30.03 in 10.0 mi North 5.8 mph - N/A   Scattered Clouds
11:54 PM 57.9 °F 50.0 °F 75% 30.02 in 10.0 mi NNE 9.2 mph - N/A   Clear